| time (UTC) | temp F | wind direction | speed MPH | gust MPH | rain 1hr in | rain 24hr in | rain mn in | humidity % | barometer mb |
| 20260507195632 | 69 | 257 | 6.0 | 15.0 | 0.00 | 0.00 | 0.00 | 33 | 1016.3 |
| 20260507195129 | 70 | 217 | 5.0 | 6.0 | 0.00 | 0.00 | 0.00 | 32 | 1016.2 |
| 20260507194626 | 71 | 221 | 9.0 | 15.0 | 0.00 | 0.00 | 0.00 | 32 | 1016.7 |
| 20260507194121 | 69 | 192 | 4.0 | 14.0 | 0.00 | 0.00 | 0.00 | 33 | 1016.7 |
| 20260507193618 | 70 | 219 | 14.0 | 18.0 | 0.00 | 0.00 | 0.00 | 32 | 1016.9 |
| 20260507193115 | 69 | 232 | 2.0 | 9.0 | 0.00 | 0.00 | 0.00 | 35 | 1016.7 |
| 20260507192612 | 69 | 203 | 12.0 | 15.0 | 0.00 | 0.00 | 0.00 | 34 | 1017.0 |
| 20260507192109 | 69 | 233 | 10.0 | 12.0 | 0.00 | 0.00 | 0.00 | 35 | 1016.9 |
| 20260507191604 | 68 | 239 | 8.0 | 21.0 | 0.00 | 0.00 | 0.00 | 38 | 1017.0 |
| 20260507191101 | 68 | 297 | 5.0 | 8.0 | 0.00 | 0.00 | 0.00 | 37 | 1017.2 |
| 20260507190558 | 68 | 223 | 11.0 | 15.0 | 0.00 | 0.00 | 0.00 | 37 | 1017.2 |
| 20260507190057 | 68 | 215 | 5.0 | 14.0 | 0.00 | 0.00 | 0.00 | 39 | 1017.3 |
| 20260507185555 | 67 | 305 | 3.0 | 11.0 | 0.00 | 0.00 | 0.00 | 40 | 1017.2 |
| 20260507185051 | 66 | 287 | 7.0 | 11.0 | 0.00 | 0.00 | 0.00 | 42 | 1017.6 |
| 20260507184550 | 68 | 249 | 5.0 | 10.0 | 0.00 | 0.00 | 0.00 | 41 | 1017.6 |
| 20260507184047 | 67 | 298 | 5.0 | 19.0 | 0.00 | 0.00 | 0.00 | 40 | 1017.7 |
| 20260507183543 | 67 | 207 | 12.0 | 18.0 | 0.00 | 0.00 | 0.00 | 40 | 1017.8 |
| 20260507183040 | 66 | 241 | 4.0 | 11.0 | 0.00 | 0.00 | 0.00 | 42 | 1018.1 |
| 20260507182536 | 64 | 227 | 8.0 | 23.0 | 0.00 | 0.00 | 0.00 | 45 | 1018.1 |
| 20260507182032 | 65 | 237 | 5.0 | 14.0 | 0.00 | 0.00 | 0.00 | 44 | 1018.2 |
| 20260507181530 | 65 | 208 | 14.0 | 20.0 | 0.00 | 0.00 | 0.00 | 43 | 1018.4 |
| 20260507181026 | 64 | 228 | 4.0 | 17.0 | 0.00 | 0.00 | 0.00 | 45 | 1018.5 |
| 20260507180522 | 65 | 226 | 15.0 | 18.0 | 0.00 | 0.00 | 0.00 | 45 | 1018.6 |
| 20260507180019 | 64 | 319 | 4.0 | 10.0 | 0.00 | 0.00 | 0.00 | 46 | 1018.7 |
| 20260507175515 | 64 | 217 | 7.0 | 16.0 | 0.00 | 0.00 | 0.00 | 45 | 1018.7 |
| 20260507175013 | 64 | 227 | 12.0 | 15.0 | 0.00 | 0.00 | 0.00 | 46 | 1018.9 |
| 20260507174510 | 63 | 233 | 9.0 | 20.0 | 0.00 | 0.00 | 0.00 | 47 | 1018.8 |
| 20260507174008 | 62 | 233 | 13.0 | 17.0 | 0.00 | 0.00 | 0.00 | 48 | 1019.1 |
| 20260507173504 | 62 | 220 | 14.0 | 19.0 | 0.00 | 0.00 | 0.00 | 49 | 1019.1 |
| 20260507173002 | 62 | 300 | 6.0 | 13.0 | 0.00 | 0.00 | 0.00 | 50 | 1019.5 |
| 20260507172458 | 62 | 237 | 4.0 | 11.0 | 0.00 | 0.00 | 0.00 | 49 | 1019.2 |
| 20260507171954 | 61 | 250 | 6.0 | 15.0 | 0.00 | 0.00 | 0.00 | 51 | 1019.5 |
| 20260507171450 | 61 | 249 | 2.0 | 11.0 | 0.00 | 0.00 | 0.00 | 52 | 1019.5 |
| 20260507170948 | 60 | 228 | 12.0 | 14.0 | 0.00 | 0.00 | 0.00 | 52 | 1019.5 |
| 20260507170444 | 59 | 220 | 10.0 | 21.0 | 0.00 | 0.00 | 0.00 | 52 | 1019.6 |
| 20260507165940 | 60 | 203 | 8.0 | 15.0 | 0.00 | 0.00 | 0.00 | 52 | 1019.7 |
| 20260507165437 | 59 | 271 | 2.0 | 14.0 | 0.00 | 0.00 | 0.00 | 53 | 1019.8 |
| 20260507164932 | 59 | 231 | 6.0 | 15.0 | 0.00 | 0.00 | 0.00 | 54 | 1019.8 |
| 20260507164430 | 59 | 223 | 14.0 | 17.0 | 0.00 | 0.00 | 0.00 | 53 | 1019.8 |
| 20260507163926 | 57 | 206 | 5.0 | 21.0 | 0.00 | 0.00 | 0.00 | 56 | 1019.9 |
| 20260507163424 | 59 | 204 | 18.0 | 23.0 | 0.00 | 0.00 | 0.00 | 54 | 1019.9 |
| 20260507162921 | 58 | 226 | 15.0 | 15.0 | 0.00 | 0.00 | 0.00 | 54 | 1020.1 |
| 20260507162416 | 59 | 239 | 7.0 | 14.0 | 0.00 | 0.00 | 0.00 | 54 | 1020.1 |
| 20260507161914 | 57 | 202 | 9.0 | 15.0 | 0.00 | 0.00 | 0.00 | 57 | 1020.2 |
| 20260507161409 | 56 | 209 | 11.0 | 14.0 | 0.00 | 0.00 | 0.00 | 57 | 1020.0 |
| 20260507160906 | 57 | 209 | 10.0 | 19.0 | 0.00 | 0.00 | 0.00 | 55 | 1020.0 |
| 20260507160402 | 56 | 228 | 10.0 | 17.0 | 0.00 | 0.00 | 0.00 | 58 | 1020.2 |
| 20260507155858 | 56 | 227 | 11.0 | 13.0 | 0.00 | 0.00 | 0.00 | 59 | 1020.2 |
| 20260507155354 | 54 | 274 | 5.0 | 11.0 | 0.00 | 0.00 | 0.00 | 64 | 1020.2 |
| 20260507154851 | 54 | 238 | 11.0 | 15.0 | 0.00 | 0.00 | 0.00 | 64 | 1020.4 |
| 20260507154348 | 53 | 238 | 5.0 | 12.0 | 0.00 | 0.00 | 0.00 | 65 | 1020.4 |
| 20260507153932 | 53 | 199 | 13.0 | 19.0 | 0.00 | 0.00 | 0.00 | 64 | 1020.2 |
| 20260507153846 | 53 | 199 | 13.0 | 19.0 | 0.00 | 0.00 | 0.00 | 64 | 1020.2 |
| 20260507153342 | 53 | 208 | 8.0 | 15.0 | 0.00 | 0.00 | 0.00 | 66 | 1020.4 |
| 20260507153139 | 52 | 223 | 4.0 | 8.0 | 0.00 | 0.00 | 0.00 | 68 | 1020.5 |
| 20260507152838 | 52 | 223 | 4.0 | 8.0 | 0.00 | 0.00 | 0.00 | 68 | 1020.5 |
| 20260507152334 | 52 | 229 | 7.0 | 11.0 | 0.00 | 0.00 | 0.00 | 68 | 1020.5 |
| 20260507152240 | 53 | 210 | 4.0 | 7.0 | 0.00 | 0.00 | 0.00 | 69 | 1020.6 |
| 20260507151831 | 53 | 210 | 4.0 | 7.0 | 0.00 | 0.00 | 0.00 | 69 | 1020.6 |
| 20260507151327 | 51 | 189 | 2.0 | 7.0 | 0.00 | 0.00 | 0.00 | 72 | 1020.8 |
| 20260507150825 | 51 | 308 | 1.0 | 11.0 | 0.00 | 0.00 | 0.00 | 74 | 1020.5 |
| 20260507150321 | 50 | 239 | 3.0 | 7.0 | 0.00 | 0.00 | 0.00 | 75 | 1020.7 |
| 20260507145817 | 50 | 224 | 5.0 | 5.0 | 0.00 | 0.00 | 0.00 | 76 | 1020.7 |
| 20260507145313 | 48 | 204 | 3.0 | 11.0 | 0.00 | 0.00 | 0.00 | 78 | 1020.8 |
| 20260507144811 | 48 | 223 | 11.0 | 13.0 | 0.00 | 0.00 | 0.00 | 80 | 1020.8 |
| 20260507144308 | 48 | 229 | 4.0 | 7.0 | 0.00 | 0.00 | 0.00 | 81 | 1020.8 |
| 20260507143804 | 47 | 331 | 5.0 | 11.0 | 0.00 | 0.00 | 0.00 | 84 | 1020.8 |
| 20260507143302 | 47 | 314 | 4.0 | 8.0 | 0.00 | 0.00 | 0.00 | 85 | 1021.0 |
| 20260507142758 | 46 | 314 | 4.0 | 7.0 | 0.00 | 0.00 | 0.00 | 86 | 1021.0 |
| 20260507142254 | 45 | 216 | 9.0 | 10.0 | 0.00 | 0.00 | 0.00 | 88 | 1020.9 |
| 20260507141751 | 45 | 292 | 6.0 | 9.0 | 0.00 | 0.00 | 0.00 | 89 | 1021.2 |
| 20260507141248 | 44 | 224 | 4.0 | 12.0 | 0.00 | 0.00 | 0.00 | 91 | 1021.4 |
| 20260507140744 | 44 | 182 | 2.0 | 7.0 | 0.00 | 0.00 | 0.00 | 93 | 1021.1 |
| 20260507140242 | 43 | 217 | 4.0 | 11.0 | 0.00 | 0.00 | 0.00 | 94 | 1021.4 |
| 20260507135738 | 43 | 342 | 4.0 | 9.0 | 0.00 | 0.00 | 0.00 | 96 | 1021.4 |
| 20260507135236 | 43 | 306 | 3.0 | 8.0 | 0.00 | 0.00 | 0.00 | 96 | 1021.1 |
| 20260507134732 | 42 | 260 | 2.0 | 8.0 | 0.00 | 0.00 | 0.00 | 97 | 1021.4 |
| 20260507134228 | 42 | 302 | 2.0 | 5.0 | 0.00 | 0.00 | 0.00 | 97 | 1021.4 |
| 20260507133724 | 42 | 192 | 2.0 | 11.0 | 0.00 | 0.00 | 0.00 | 97 | 1021.6 |
| 20260507133221 | 42 | 303 | 1.0 | 11.0 | 0.00 | 0.00 | 0.00 | 97 | 1021.2 |
| 20260507132719 | 41 | 166 | 2.0 | 5.0 | 0.00 | 0.00 | 0.00 | 97 | 1021.5 |
| 20260507132215 | 41 | 299 | 7.0 | 8.0 | 0.00 | 0.00 | 0.00 | 97 | 1021.5 |
| 20260507131712 | 41 | 278 | 2.0 | 5.0 | 0.00 | 0.00 | 0.00 | 97 | 1021.4 |
| 20260507131210 | 41 | 202 | 4.0 | 7.0 | 0.00 | 0.00 | 0.00 | 97 | 1021.2 |
| 20260507130706 | 41 | 310 | 6.0 | 6.0 | 0.00 | 0.00 | 0.00 | 97 | 1021.6 |
| 20260507130204 | 40 | 293 | 3.0 | 6.0 | 0.00 | 0.00 | 0.00 | 97 | 1021.5 |
| 20260507125702 | 40 | 298 | 7.0 | 8.0 | 0.00 | 0.00 | 0.00 | 97 | 1021.4 |
| 20260507125200 | 40 | 354 | 2.0 | 5.0 | 0.00 | 0.00 | 0.00 | 97 | 1021.2 |
| 20260507124656 | 40 | 330 | 6.0 | 7.0 | 0.00 | 0.00 | 0.00 | 97 | 1021.2 |
| 20260507124153 | 40 | 286 | 2.0 | 6.0 | 0.00 | 0.00 | 0.00 | 97 | 1020.9 |
| 20260507123652 | 40 | 40 | 1.0 | 5.0 | 0.00 | 0.00 | 0.00 | 97 | 1021.1 |
| 20260507123148 | 39 | 309 | 4.0 | 6.0 | 0.00 | 0.00 | 0.00 | 97 | 1021.0 |
| 20260507122644 | 40 | 316 | 5.0 | 5.0 | 0.00 | 0.00 | 0.00 | 97 | 1021.0 |
| 20260507122139 | 40 | 311 | 5.0 | 7.0 | 0.00 | 0.00 | 0.00 | 97 | 1021.0 |
| 20260507121636 | 39 | 318 | 5.0 | 7.0 | 0.00 | 0.00 | 0.00 | 96 | 1020.9 |
| 20260507121132 | 40 | 298 | 6.0 | 6.0 | 0.00 | 0.00 | 0.00 | 96 | 1020.9 |
| 20260507120628 | 40 | 324 | 5.0 | 6.0 | 0.00 | 0.00 | 0.00 | 96 | 1021.0 |
| 20260507120125 | 40 | 330 | 4.0 | 5.0 | 0.00 | 0.00 | 0.00 | 96 | 1020.8 |
| 20260507115621 | 40 | 325 | 2.0 | 6.0 | 0.00 | 0.00 | 0.00 | 96 | 1021.0 |
| 20260507115117 | 40 | 327 | 4.0 | 4.0 | 0.00 | 0.00 | 0.00 | 96 | 1020.9 |
| 20260507114613 | 40 | 327 | 3.0 | 6.0 | 0.00 | 0.00 | 0.00 | 96 | 1020.8 |
| 20260507114110 | 40 | 338 | 3.0 | 5.0 | 0.00 | 0.00 | 0.00 | 96 | 1020.8 |
| 20260507113608 | 40 | 328 | 4.0 | 6.0 | 0.00 | 0.00 | 0.00 | 95 | 1020.8 |
| 20260507113105 | 40 | 317 | 3.0 | 4.0 | 0.00 | 0.00 | 0.00 | 95 | 1020.9 |
| 20260507112603 | 40 | 318 | 5.0 | 6.0 | 0.00 | 0.00 | 0.00 | 95 | 1020.8 |
| 20260507112059 | 40 | 339 | 4.0 | 5.0 | 0.00 | 0.00 | 0.00 | 95 | 1020.7 |
| 20260507111556 | 40 | 347 | 4.0 | 5.0 | 0.00 | 0.00 | 0.00 | 94 | 1020.7 |
| 20260507111053 | 40 | 322 | 4.0 | 7.0 | 0.00 | 0.00 | 0.00 | 94 | 1020.8 |
| 20260507110549 | 40 | 318 | 5.0 | 7.0 | 0.00 | 0.00 | 0.00 | 94 | 1020.7 |
| 20260507110046 | 40 | 320 | 4.0 | 7.0 | 0.00 | 0.00 | 0.00 | 94 | 1021.0 |
| 20260507105542 | 40 | 305 | 6.0 | 8.0 | 0.00 | 0.00 | 0.00 | 93 | 1020.9 |
| 20260507105038 | 40 | 337 | 4.0 | 5.0 | 0.00 | 0.00 | 0.00 | 93 | 1020.8 |
| 20260507104536 | 41 | 311 | 3.0 | 7.0 | 0.00 | 0.00 | 0.00 | 93 | 1020.8 |
| 20260507104032 | 41 | 346 | 2.0 | 5.0 | 0.00 | 0.00 | 0.00 | 93 | 1020.8 |
| 20260507103528 | 40 | 348 | 2.0 | 4.0 | 0.00 | 0.00 | 0.00 | 92 | 1020.8 |
| 20260507103025 | 40 | 29 | 2.0 | 4.0 | 0.00 | 0.00 | 0.00 | 92 | 1020.9 |
| 20260507102522 | 40 | 19 | 2.0 | 5.0 | 0.00 | 0.00 | 0.00 | 92 | 1020.9 |
| 20260507102018 | 40 | 60 | 0.0 | 2.0 | 0.00 | 0.00 | 0.00 | 91 | 1020.9 |
| 20260507101514 | 40 | 346 | 1.0 | 2.0 | 0.00 | 0.00 | 0.00 | 91 | 1020.9 |
| 20260507101010 | 40 | 18 | 4.0 | 4.0 | 0.00 | 0.00 | 0.00 | 91 | 1021.0 |
| 20260507100508 | 40 | 9 | 3.0 | 4.0 | 0.00 | 0.00 | 0.00 | 91 | 1021.0 |
| 20260507100005 | 39 | 347 | 1.0 | 2.0 | 0.00 | 0.00 | 0.00 | 90 | 1020.9 |
| 20260507095503 | 40 | 19 | 4.0 | 4.0 | 0.00 | 0.00 | 0.00 | 90 | 1020.9 |
| 20260507094954 | 40 | 29 | 0.0 | 4.0 | 0.00 | 0.00 | 0.00 | 90 | 1021.0 |
| 20260507094450 | 40 | 16 | 1.0 | 7.0 | 0.00 | 0.00 | 0.00 | 89 | 1020.9 |
| 20260507093947 | 39 | 20 | 3.0 | 3.0 | 0.00 | 0.00 | 0.00 | 89 | 1020.8 |
| 20260507093445 | 40 | 112 | 1.0 | 2.0 | 0.00 | 0.00 | 0.00 | 88 | 1020.7 |
| 20260507092943 | 40 | 111 | 1.0 | 2.0 | 0.00 | 0.00 | 0.00 | 88 | 1020.6 |
| 20260507092439 | 40 | 44 | 0.0 | 0.0 | 0.00 | 0.00 | 0.00 | 88 | 1020.9 |
| 20260507091936 | 40 | 55 | 2.0 | 2.0 | 0.00 | 0.00 | 0.00 | 87 | 1020.8 |
| 20260507091432 | 40 | 103 | 0.0 | 1.0 | 0.00 | 0.00 | 0.00 | 86 | 1020.7 |
| 20260507090928 | 41 | 89 | 0.0 | 1.0 | 0.00 | 0.00 | 0.00 | 86 | 1020.7 |
| 20260507090425 | 41 | 38 | 0.0 | 2.0 | 0.00 | 0.00 | 0.00 | 86 | 1020.8 |
| 20260507085921 | 42 | 66 | 0.0 | 1.0 | 0.00 | 0.00 | 0.00 | 85 | 1020.5 |
| 20260507085418 | 42 | 49 | 2.0 | 2.0 | 0.00 | 0.00 | 0.00 | 84 | 1020.7 |
| 20260507084916 | 42 | 74 | 2.0 | 2.0 | 0.00 | 0.00 | 0.00 | 84 | 1020.6 |
| 20260507084412 | 42 | 93 | 2.0 | 2.0 | 0.00 | 0.00 | 0.00 | 83 | 1020.5 |
| 20260507083910 | 43 | 67 | 2.0 | 2.0 | 0.00 | 0.00 | 0.00 | 83 | 1020.5 |
| 20260507083406 | 43 | 39 | 3.0 | 4.0 | 0.00 | 0.00 | 0.00 | 83 | 1020.7 |
| 20260507082902 | 43 | 28 | 3.0 | 4.0 | 0.00 | 0.00 | 0.00 | 82 | 1020.7 |
| 20260507082358 | 43 | 39 | 3.0 | 4.0 | 0.00 | 0.00 | 0.00 | 81 | 1020.7 |
| 20260507081855 | 44 | 40 | 3.0 | 4.0 | 0.00 | 0.00 | 0.00 | 81 | 1020.8 |
| 20260507081351 | 44 | 65 | 3.0 | 4.0 | 0.00 | 0.00 | 0.00 | 80 | 1020.7 |
| 20260507080848 | 44 | 57 | 4.0 | 5.0 | 0.00 | 0.00 | 0.00 | 80 | 1020.6 |
| 20260507080344 | 44 | 70 | 5.0 | 6.0 | 0.00 | 0.00 | 0.00 | 80 | 1020.5 |
| 20260507075839 | 44 | 81 | 4.0 | 6.0 | 0.00 | 0.00 | 0.00 | 79 | 1020.5 |
| 20260507075336 | 45 | 80 | 0.0 | 4.0 | 0.00 | 0.00 | 0.00 | 79 | 1020.8 |
| 20260507074832 | 45 | 87 | 4.0 | 10.0 | 0.00 | 0.00 | 0.00 | 78 | 1020.4 |
| 20260507074330 | 45 | 136 | 6.0 | 7.0 | 0.00 | 0.00 | 0.00 | 76 | 1020.8 |
| 20260507073827 | 45 | 52 | 4.0 | 6.0 | 0.00 | 0.00 | 0.00 | 75 | 1021.1 |
| 20260507073324 | 45 | 16 | 6.0 | 9.0 | 0.00 | 0.00 | 0.00 | 74 | 1021.5 |
| 20260507072821 | 45 | 31 | 8.0 | 10.0 | 0.00 | 0.00 | 0.00 | 73 | 1021.8 |
| 20260507072318 | 45 | 8 | 6.0 | 7.0 | 0.00 | 0.00 | 0.00 | 72 | 1021.9 |
| 20260507071815 | 45 | 24 | 8.0 | 9.0 | 0.00 | 0.00 | 0.00 | 72 | 1021.5 |
| 20260507071312 | 46 | 16 | 8.0 | 11.0 | 0.00 | 0.00 | 0.00 | 71 | 1021.2 |
| 20260507070809 | 46 | 11 | 8.0 | 9.0 | 0.00 | 0.00 | 0.00 | 70 | 1021.7 |
| 20260507070306 | 46 | 17 | 5.0 | 11.0 | 0.00 | 0.00 | 0.00 | 70 | 1021.7 |
| 20260507065803 | 46 | 1 | 10.0 | 12.0 | 0.00 | 0.00 | 0.00 | 69 | 1021.9 |
| 20260507065259 | 46 | 13 | 8.0 | 10.0 | 0.00 | 0.00 | 0.00 | 68 | 1022.2 |
| 20260507064756 | 46 | 9 | 6.0 | 7.0 | 0.00 | 0.00 | 0.00 | 68 | 1022.1 |
| 20260507064255 | 46 | 30 | 5.0 | 8.0 | 0.00 | 0.00 | 0.00 | 67 | 1021.9 |
| 20260507063753 | 47 | 46 | 7.0 | 9.0 | 0.00 | 0.00 | 0.00 | 67 | 1022.0 |
| 20260507063249 | 47 | 8 | 7.0 | 10.0 | 0.00 | 0.00 | 0.00 | 67 | 1022.0 |
| 20260507062746 | 47 | 352 | 6.0 | 9.0 | 0.00 | 0.00 | 0.00 | 67 | 1021.8 |
| 20260507062243 | 47 | 48 | 8.0 | 11.0 | 0.00 | 0.00 | 0.00 | 66 | 1021.6 |
| 20260507061741 | 47 | 27 | 6.0 | 9.0 | 0.00 | 0.00 | 0.00 | 66 | 1021.7 |
| 20260507061239 | 47 | 28 | 6.0 | 8.0 | 0.00 | 0.00 | 0.00 | 66 | 1021.9 |
| 20260507060737 | 47 | 44 | 7.0 | 13.0 | 0.00 | 0.00 | 0.00 | 66 | 1021.6 |
| 20260507060233 | 47 | 50 | 9.0 | 12.0 | 0.00 | 0.00 | 0.00 | 66 | 1021.5 |
| 20260507055730 | 47 | 31 | 11.0 | 13.0 | 0.00 | 0.00 | 0.00 | 65 | 1021.1 |
| 20260507055225 | 47 | 39 | 9.0 | 14.0 | 0.00 | 0.00 | 0.00 | 65 | 1020.9 |
| 20260507054721 | 47 | 16 | 10.0 | 13.0 | 0.00 | 0.00 | 0.00 | 65 | 1020.8 |
| 20260507054218 | 47 | 40 | 9.0 | 13.0 | 0.00 | 0.00 | 0.00 | 65 | 1020.9 |
| 20260507053716 | 47 | 36 | 6.0 | 13.0 | 0.00 | 0.00 | 0.00 | 65 | 1021.1 |
| 20260507053214 | 47 | 60 | 7.0 | 14.0 | 0.00 | 0.00 | 0.00 | 65 | 1021.1 |
| 20260507052713 | 47 | 37 | 9.0 | 15.0 | 0.00 | 0.00 | 0.00 | 65 | 1020.8 |
| 20260507052208 | 47 | 38 | 7.0 | 14.0 | 0.00 | 0.00 | 0.00 | 65 | 1020.7 |
| 20260507051706 | 47 | 47 | 9.0 | 15.0 | 0.00 | 0.00 | 0.00 | 65 | 1021.0 |
| 20260507051203 | 47 | 37 | 6.0 | 16.0 | 0.00 | 0.00 | 0.00 | 66 | 1020.8 |
| 20260507050659 | 47 | 6 | 13.0 | 15.0 | 0.00 | 0.00 | 0.00 | 66 | 1020.9 |
| 20260507050156 | 47 | 22 | 11.0 | 18.0 | 0.00 | 0.00 | 0.00 | 65 | 1020.9 |
| 20260507045653 | 48 | 20 | 12.0 | 19.0 | 0.00 | 0.00 | 0.00 | 64 | 1020.9 |
| 20260507045149 | 48 | 35 | 15.0 | 18.0 | 0.00 | 0.00 | 0.00 | 63 | 1021.1 |
| 20260507044646 | 48 | 10 | 10.0 | 19.0 | 0.00 | 0.00 | 0.00 | 63 | 1021.0 |
| 20260507044143 | 48 | 24 | 8.0 | 13.0 | 0.00 | 0.00 | 0.00 | 63 | 1021.0 |
| 20260507043639 | 48 | 15 | 11.0 | 14.0 | 0.00 | 0.00 | 0.00 | 63 | 1020.9 |
| 20260507043136 | 48 | 40 | 13.0 | 15.0 | 0.00 | 0.00 | 0.00 | 62 | 1020.8 |
| 20260507042632 | 48 | 22 | 10.0 | 15.0 | 0.00 | 0.00 | 0.00 | 62 | 1020.7 |
| 20260507042121 | 48 | 19 | 11.0 | 16.0 | 0.00 | 0.00 | 0.00 | 62 | 1020.6 |
| 20260507041619 | 48 | 7 | 11.0 | 18.0 | 0.00 | 0.00 | 0.00 | 62 | 1020.7 |
| 20260507041116 | 48 | 9 | 11.0 | 15.0 | 0.00 | 0.00 | 0.00 | 61 | 1020.2 |
| 20260507040612 | 49 | 41 | 11.0 | 21.0 | 0.00 | 0.00 | 0.00 | 61 | 1020.2 |
| 20260507040103 | 49 | 20 | 15.0 | 18.0 | 0.00 | 0.00 | 0.00 | 60 | 1020.2 |
| 20260507035559 | 49 | 23 | 12.0 | 18.0 | 0.00 | 0.00 | 0.00 | 60 | 1020.2 |
| 20260507035055 | 49 | 15 | 17.0 | 24.0 | 0.00 | 0.00 | 0.00 | 60 | 1020.5 |
| 20260507034552 | 49 | 26 | 14.0 | 17.0 | 0.00 | 0.00 | 0.00 | 60 | 1020.1 |
| 20260507034050 | 50 | 7 | 17.0 | 22.0 | 0.00 | 0.00 | 0.00 | 60 | 1020.5 |
| 20260507033548 | 50 | 23 | 13.0 | 17.0 | 0.00 | 0.00 | 0.00 | 60 | 1020.1 |
| 20260507033045 | 50 | 12 | 15.0 | 17.0 | 0.00 | 0.00 | 0.00 | 61 | 1020.1 |
| 20260507032542 | 50 | 31 | 16.0 | 23.0 | 0.00 | 0.00 | 0.00 | 61 | 1019.9 |
| 20260507032038 | 50 | 25 | 17.0 | 27.0 | 0.00 | 0.00 | 0.00 | 62 | 1020.1 |
| 20260507031535 | 50 | 35 | 13.0 | 23.0 | 0.00 | 0.00 | 0.00 | 62 | 1020.1 |
| 20260507031032 | 51 | 41 | 14.0 | 21.0 | 0.00 | 0.00 | 0.00 | 61 | 1020.0 |
| 20260507030529 | 52 | 23 | 15.0 | 25.0 | 0.00 | 0.00 | 0.00 | 57 | 1019.4 |
| 20260507030027 | 52 | 5 | 12.0 | 20.0 | 0.00 | 0.00 | 0.00 | 56 | 1019.6 |
| 20260507025523 | 52 | 37 | 16.0 | 25.0 | 0.00 | 0.00 | 0.00 | 55 | 1019.4 |
| 20260507025021 | 53 | 30 | 13.0 | 22.0 | 0.00 | 0.00 | 0.00 | 54 | 1019.1 |
| 20260507024518 | 53 | 25 | 12.0 | 21.0 | 0.00 | 0.00 | 0.00 | 54 | 1019.4 |
| 20260507024015 | 53 | 16 | 13.0 | 23.0 | 0.00 | 0.00 | 0.00 | 53 | 1019.0 |
| 20260507023511 | 54 | 16 | 10.0 | 20.0 | 0.00 | 0.00 | 0.00 | 53 | 1019.0 |
| 20260507023009 | 54 | 4 | 13.0 | 14.0 | 0.00 | 0.00 | 0.00 | 53 | 1018.8 |
| 20260507022505 | 54 | 12 | 11.0 | 16.0 | 0.00 | 0.00 | 0.00 | 53 | 1018.7 |
| 20260507022000 | 55 | 35 | 9.0 | 21.0 | 0.00 | 0.00 | 0.00 | 54 | 1018.6 |
| 20260507021456 | 55 | 30 | 13.0 | 16.0 | 0.00 | 0.00 | 0.00 | 53 | 1018.2 |
| 20260507020953 | 55 | 21 | 10.0 | 17.0 | 0.00 | 0.00 | 0.00 | 53 | 1017.9 |
| 20260507020450 | 55 | 33 | 8.0 | 14.0 | 0.00 | 0.00 | 0.00 | 53 | 1017.9 |
| 20260507015947 | 55 | 30 | 11.0 | 15.0 | 0.00 | 0.00 | 0.00 | 53 | 1018.0 |
| 20260507015445 | 55 | 30 | 11.0 | 17.0 | 0.00 | 0.00 | 0.00 | 53 | 1017.5 |
| 20260507014936 | 55 | 42 | 11.0 | 15.0 | 0.00 | 0.00 | 0.00 | 53 | 1017.6 |
| 20260507014433 | 55 | 22 | 10.0 | 19.0 | 0.00 | 0.00 | 0.00 | 53 | 1017.1 |
| 20260507013929 | 55 | 56 | 12.0 | 14.0 | 0.00 | 0.00 | 0.00 | 52 | 1016.8 |
| 20260507013426 | 55 | 53 | 9.0 | 15.0 | 0.00 | 0.00 | 0.00 | 52 | 1016.6 |
| 20260507012924 | 56 | 69 | 11.0 | 16.0 | 0.00 | 0.00 | 0.00 | 51 | 1016.6 |
| 20260507012420 | 56 | 65 | 10.0 | 17.0 | 0.00 | 0.00 | 0.00 | 51 | 1016.2 |
| 20260507011917 | 56 | 82 | 9.0 | 15.0 | 0.00 | 0.00 | 0.00 | 51 | 1016.0 |
| 20260507011414 | 57 | 63 | 11.0 | 18.0 | 0.00 | 0.00 | 0.00 | 50 | 1015.7 |
| 20260507010914 | 57 | 82 | 15.0 | 18.0 | 0.00 | 0.00 | 0.00 | 49 | 1016.0 |
| 20260507010409 | 58 | 81 | 11.0 | 16.0 | 0.00 | 0.00 | 0.00 | 49 | 1015.8 |
| 20260507005907 | 58 | 72 | 9.0 | 18.0 | 0.00 | 0.00 | 0.00 | 48 | 1015.6 |
| 20260507005403 | 58 | 71 | 14.0 | 17.0 | 0.00 | 0.00 | 0.00 | 49 | 1015.6 |
| 20260507004900 | 59 | 82 | 11.0 | 17.0 | 0.00 | 0.00 | 0.00 | 48 | 1015.5 |
| 20260507004357 | 59 | 77 | 8.0 | 18.0 | 0.00 | 0.00 | 0.00 | 48 | 1015.3 |
| 20260507003854 | 59 | 106 | 9.0 | 16.0 | 0.00 | 0.00 | 0.00 | 48 | 1015.3 |
| 20260507003349 | 59 | 103 | 9.0 | 18.0 | 0.00 | 0.00 | 0.00 | 48 | 1015.2 |
| 20260507002845 | 59 | 71 | 10.0 | 18.0 | 0.00 | 0.00 | 0.00 | 48 | 1015.2 |
| 20260507002341 | 59 | 87 | 17.0 | 17.0 | 0.00 | 0.00 | 0.00 | 48 | 1015.1 |
| 20260507001839 | 59 | 87 | 16.0 | 18.0 | 0.00 | 0.00 | 0.00 | 48 | 1015.0 |
| 20260507001335 | 59 | 87 | 15.0 | 17.0 | 0.00 | 0.00 | 0.00 | 48 | 1014.7 |
| 20260507000832 | 59 | 94 | 12.0 | 18.0 | 0.00 | 0.00 | 0.00 | 48 | 1014.8 |
| 20260507000328 | 59 | 93 | 13.0 | 19.0 | 0.00 | 0.00 | 0.00 | 47 | 1014.9 |
| 20260506235824 | 59 | 84 | 10.0 | 18.0 | 0.00 | 0.00 | 0.00 | 48 | 1014.6 |
| 20260506235320 | 60 | 92 | 11.0 | 17.0 | 0.00 | 0.00 | 0.00 | 47 | 1014.6 |
| 20260506234817 | 60 | 99 | 7.0 | 24.0 | 0.00 | 0.00 | 0.00 | 48 | 1014.7 |
| 20260506234315 | 60 | 94 | 9.0 | 17.0 | 0.00 | 0.00 | 0.00 | 48 | 1014.7 |
| 20260506233812 | 60 | 80 | 17.0 | 21.0 | 0.00 | 0.00 | 0.00 | 47 | 1014.9 |
| 20260506233308 | 59 | 94 | 19.0 | 21.0 | 0.00 | 0.00 | 0.00 | 48 | 1015.1 |
| 20260506232805 | 60 | 87 | 8.0 | 16.0 | 0.00 | 0.00 | 0.00 | 48 | 1014.9 |
| 20260506232259 | 59 | 85 | 8.0 | 13.0 | 0.00 | 0.00 | 0.00 | 49 | 1015.0 |
| 20260506231751 | 59 | 72 | 15.0 | 19.0 | 0.00 | 0.00 | 0.00 | 48 | 1014.9 |
| 20260506231250 | 59 | 89 | 24.0 | 27.0 | 0.00 | 0.00 | 0.00 | 48 | 1015.0 |
| 20260506230746 | 60 | 62 | 14.0 | 26.0 | 0.00 | 0.00 | 0.00 | 48 | 1014.7 |
| 20260506230243 | 60 | 88 | 12.0 | 21.0 | 0.00 | 0.00 | 0.00 | 48 | 1014.7 |
| 20260506225739 | 60 | 66 | 11.0 | 20.0 | 0.00 | 0.00 | 0.00 | 48 | 1014.5 |
| 20260506225237 | 59 | 83 | 13.0 | 23.0 | 0.00 | 0.00 | 0.00 | 48 | 1014.7 |
| 20260506224733 | 60 | 79 | 9.0 | 18.0 | 0.00 | 0.00 | 0.00 | 48 | 1014.8 |
| 20260506224230 | 60 | 62 | 18.0 | 24.0 | 0.00 | 0.00 | 0.00 | 48 | 1014.7 |
| 20260506223726 | 60 | 94 | 11.0 | 20.0 | 0.00 | 0.00 | 0.00 | 48 | 1014.7 |
| 20260506223222 | 60 | 103 | 9.0 | 19.0 | 0.00 | 0.00 | 0.00 | 47 | 1014.7 |
| 20260506222720 | 60 | 54 | 16.0 | 21.0 | 0.00 | 0.00 | 0.00 | 48 | 1014.7 |
| 20260506222215 | 60 | 80 | 15.0 | 23.0 | 0.00 | 0.00 | 0.00 | 49 | 1014.7 |
| 20260506221713 | 61 | 79 | 13.0 | 15.0 | 0.00 | 0.00 | 0.00 | 47 | 1014.8 |
| 20260506221211 | 60 | 77 | 7.0 | 16.0 | 0.00 | 0.00 | 0.00 | 48 | 1014.8 |
| 20260506220708 | 61 | 84 | 12.0 | 18.0 | 0.00 | 0.00 | 0.00 | 48 | 1014.8 |
| 20260506220202 | 60 | 78 | 13.0 | 25.0 | 0.00 | 0.00 | 0.00 | 48 | 1014.8 |
| 20260506215659 | 60 | 58 | 9.0 | 18.0 | 0.00 | 0.00 | 0.00 | 47 | 1014.9 |
| 20260506215154 | 61 | 75 | 15.0 | 16.0 | 0.00 | 0.00 | 0.00 | 48 | 1015.0 |
| 20260506214652 | 61 | 95 | 21.0 | 21.0 | 0.00 | 0.00 | 0.00 | 47 | 1014.8 |
| 20260506214149 | 60 | 82 | 13.0 | 21.0 | 0.00 | 0.00 | 0.00 | 48 | 1014.9 |
| 20260506213648 | 59 | 64 | 12.0 | 19.0 | 0.00 | 0.00 | 0.00 | 50 | 1014.9 |
| 20260506213144 | 60 | 74 | 15.0 | 23.0 | 0.00 | 0.00 | 0.00 | 49 | 1015.0 |
| 20260506212642 | 60 | 83 | 14.0 | 24.0 | 0.00 | 0.00 | 0.00 | 49 | 1015.0 |
| 20260506212136 | 60 | 72 | 13.0 | 24.0 | 0.00 | 0.00 | 0.00 | 49 | 1014.9 |
| 20260506211632 | 60 | 107 | 13.0 | 17.0 | 0.00 | 0.00 | 0.00 | 48 | 1014.9 |
| 20260506211129 | 60 | 91 | 12.0 | 20.0 | 0.00 | 0.00 | 0.00 | 48 | 1014.9 |
| 20260506210627 | 61 | 66 | 13.0 | 19.0 | 0.00 | 0.00 | 0.00 | 48 | 1014.9 |
| 20260506210123 | 60 | 67 | 19.0 | 23.0 | 0.00 | 0.00 | 0.00 | 48 | 1014.9 |
| 20260506205620 | 61 | 79 | 17.0 | 19.0 | 0.00 | 0.00 | 0.00 | 47 | 1015.0 |
| 20260506205114 | 61 | 74 | 12.0 | 19.0 | 0.00 | 0.00 | 0.00 | 47 | 1015.0 |
| 20260506204613 | 61 | 64 | 11.0 | 14.0 | 0.00 | 0.00 | 0.00 | 47 | 1015.0 |
| 20260506204109 | 61 | 56 | 14.0 | 18.0 | 0.00 | 0.00 | 0.00 | 47 | 1015.1 |
| 20260506203608 | 63 | 69 | 19.0 | 21.0 | 0.00 | 0.00 | 0.00 | 44 | 1015.2 |
| 20260506203104 | 64 | 100 | 10.0 | 18.0 | 0.00 | 0.00 | 0.00 | 44 | 1015.1 |
| 20260506202602 | 62 | 91 | 5.0 | 13.0 | 0.00 | 0.00 | 0.00 | 46 | 1014.8 |
| 20260506202058 | 59 | 105 | 7.0 | 12.0 | 0.00 | 0.00 | 0.00 | 48 | 1015.1 |
| 20260506201555 | 59 | 98 | 4.0 | 13.0 | 0.00 | 0.00 | 0.00 | 49 | 1015.5 |
| 20260506201052 | 59 | 109 | 7.0 | 15.0 | 0.00 | 0.00 | 0.00 | 49 | 1014.9 |
| 20260506200548 | 60 | 54 | 17.0 | 20.0 | 0.00 | 0.00 | 0.00 | 48 | 1015.0 |
| 20260506200045 | 62 | 87 | 20.0 | 21.0 | 0.00 | 0.00 | 0.00 | 46 | 1015.0 |